North Myrtle Beach, SC

12:31 AM EST on December 16, 2019 (GMT -0500)
Grand Strand

Weather History for KCRE - October, 2019

Change the Weather History Date:

Thursday, October 31, 2019

  Actual Average Record
Temperature  
Mean Temperature 75 °F 61 °F  
Max Temperature 81 °F 71 °F 85 °F (2004)
Min Temperature 68 °F 50 °F 32 °F (2008)
Degree Days  
Heating Degree Days 0 6  
Month to date heating degree days 12 87  
Since 1 July heating degree days 12 90  
Cooling Degree Days 10 1  
Month to date cooling degree days 196 99  
Year to date cooling degree days 2379 1883  
Growing Degree Days 28 (Base 50)    
Moisture  
Dew Point 73 °F    
Average Humidity 87    
Maximum Humidity 94    
Minimum Humidity 79    
Precipitation  
Precipitation 0.06 in 0.11 in 1.35 in (1949)
Month to date precipitation 4.14 3.88  
Year to date precipitation 46.71 45.51  
Sea Level Pressure  
Sea Level Pressure 29.96 in    
Wind  
Wind Speed 14 mph (SSW)    
Max Wind Speed 29 mph    
Max Gust Speed 39 mph    
Visibility 10 miles    
Events Rain , Thunderstorm    
T = Trace of Precipitation, MM = Missing Value Source: NWS Daily Summary

Daily Weather History Graph

Daily Weather History Graph

Search for Another Location

Airport or City:

Astronomy

Oct. 31, 2019 Rise Set
Actual Time 7:32 AM EDT 6:23 PM EDT
Civil Twilight 7:07 AM EDT 6:49 PM EDT
Nautical Twilight 6:37 AM EDT 7:18 PM EDT
Astronomical Twilight 6:08 AM EDT 7:47 PM EDT
Moon 11:11 AM EDT (10/31) 9:26 PM EDT (10/31)
Length of Visible Light 11h 41m
Length of Day
10h 50m
Waxing Crescent, 15% of the Moon is Illuminated
Oct 31
Waxing Crescent
Nov 4
First Quarter
Nov 12
Full
Nov 19
Last Quarter
Nov 26
New

Hourly Weather History & Observations

Time (EDT) Temp. Heat Index Dew Point Humidity Pressure Visibility Wind Dir Wind Speed Gust Speed Precip Events Conditions
12:53 AM 75.9 °F - 71.1 °F 85% 30.07 in 10.0 mi South 8.1 mph - N/A   Clear
2:53 AM 75.0 °F - 71.1 °F 87% 30.03 in 10.0 mi South 6.9 mph - N/A   Scattered Clouds
3:53 AM 75.9 °F - 71.1 °F 85% 30.02 in 10.0 mi South 8.1 mph - N/A   Overcast
4:42 AM 75.9 °F - 71.1 °F 85% 30.01 in 10.0 mi South 8.1 mph - N/A   Overcast
4:53 AM 75.0 °F - 71.1 °F 87% 30.02 in 10.0 mi South 8.1 mph - N/A   Overcast
5:36 AM 75.0 °F - 72.0 °F 90% 30.01 in 10.0 mi South 8.1 mph - N/A   Mostly Cloudy
5:53 AM 75.0 °F - 72.0 °F 90% 30.02 in 10.0 mi South 8.1 mph - N/A   Partly Cloudy
6:53 AM 75.9 °F - 71.1 °F 85% 30.02 in 10.0 mi South 13.8 mph - N/A   Overcast
7:53 AM 75.9 °F - 72.0 °F 87% 30.01 in 10.0 mi South 10.4 mph - N/A   Partly Cloudy
8:53 AM 77.0 °F - 72.0 °F 84% 30.03 in 10.0 mi South 12.7 mph - N/A   Mostly Cloudy
9:44 AM 77.0 °F - 72.0 °F 84% 30.03 in 10.0 mi South 12.7 mph - N/A   Overcast
9:53 AM 78.1 °F - 73.0 °F 84% 30.03 in 10.0 mi South 11.5 mph - N/A   Mostly Cloudy
10:53 AM 79.0 °F - 73.0 °F 82% 30.03 in 10.0 mi South 13.8 mph - N/A   Mostly Cloudy
11:53 AM 80.1 °F 84.2 °F 73.0 °F 79% 30.01 in 10.0 mi South 13.8 mph - N/A   Mostly Cloudy
12:38 PM 78.1 °F - 72.0 °F 81% 29.99 in 10.0 mi South 15.0 mph 23.0 mph N/A   Overcast
12:53 PM 78.1 °F - 73.0 °F 84% 29.99 in 7.0 mi South 13.8 mph - 0.00 in Rain Light Rain
1:53 PM 79.0 °F - 73.0 °F 82% 29.95 in 10.0 mi South 13.8 mph - 0.00 in   Overcast
2:53 PM 79.0 °F - 72.0 °F 79% 29.93 in 10.0 mi South 17.3 mph 25.3 mph N/A   Overcast
3:53 PM 79.0 °F - 72.0 °F 79% 29.92 in 10.0 mi SSW 16.1 mph 25.3 mph N/A   Overcast
5:53 PM 77.0 °F - 72.0 °F 84% 29.90 in 10.0 mi South 19.6 mph - N/A   Overcast
6:35 PM 75.9 °F - 73.0 °F 91% 29.90 in 10.0 mi South 19.6 mph 27.6 mph N/A   Scattered Clouds
6:53 PM 75.9 °F - 73.0 °F 91% 29.91 in 10.0 mi South 17.3 mph - N/A   Clear
7:53 PM 75.9 °F - 73.9 °F 94% 29.90 in 10.0 mi South 18.4 mph - N/A   Partly Cloudy
8:53 PM 77.0 °F - 73.9 °F 90% 29.88 in 10.0 mi South 19.6 mph 27.6 mph N/A   Clear
9:53 PM 77.0 °F - 73.9 °F 90% 29.87 in 10.0 mi South 18.4 mph - N/A   Clear
10:12 PM 77.0 °F - 73.9 °F 90% 29.87 in 10.0 mi SSW 19.6 mph 28.8 mph N/A Thunderstorm Scattered Clouds
10:27 PM 77.0 °F - 73.9 °F 90% 29.87 in 10.0 mi SSW 19.6 mph 33.4 mph N/A   Mostly Cloudy
10:45 PM 77.0 °F - 75.0 °F 94% 29.88 in 5.0 mi SW 21.9 mph 29.9 mph 0.03 in Rain , Thunderstorm Light Rain
10:53 PM 77.0 °F - 73.9 °F 90% 29.89 in 7.0 mi WSW 20.7 mph 39.1 mph 0.04 in Rain , Thunderstorm Light Thunderstorms and Rain
11:01 PM 75.9 °F - 73.0 °F 91% 29.89 in 7.0 mi SW 21.9 mph 35.7 mph 0.01 in Rain , Thunderstorm Light Thunderstorms and Rain
11:10 PM 75.0 °F - 73.0 °F 94% 29.91 in 8.0 mi SW 20.7 mph 35.7 mph 0.01 in Rain , Thunderstorm Light Rain
11:25 PM 75.0 °F - 73.0 °F 94% 29.90 in 9.0 mi WSW 9.2 mph - 0.01 in   Overcast